JA3VQW-13 Weather Reports


time (UTC)temp
C
wind
direction
speed
KPH
gust
KPH
rain 1hr
cm
rain 24hr
cm
rain mn
cm
humidity
%
barometer
mb
20260507104131 22 279 4.8 8.0 0.00 0.00 0.00 45 1002.0
20260507103617 22 249 8.0 4.8 0.00 0.00 0.00 45 1002.0
20260507102632 22 270 9.7 9.7 0.00 0.00 0.00 43 1002.0
20260507101132 22 199 4.8 8.0 0.00 0.00 0.00 41 1001.0
20260507100618 22 242 8.0 9.7 0.00 0.00 0.00 40 1001.0
20260507095631 22 294 8.0 9.7 0.00 0.00 0.00 37 1001.0
20260507093618 23 207 4.8 9.7 0.00 0.00 0.00 36 1001.0
20260507092631 23 144 8.0 9.7 0.00 0.00 0.00 33 1001.0
20260507091131 24 168 4.8 8.0 0.00 0.00 0.00 31 1001.2
20260507090618 24 262 4.8 14.5 0.00 0.00 0.00 31 1001.0
20260507085630 25 208 4.8 8.0 0.00 0.00 0.00 24 1001.0
20260507084131 26 188 4.8 9.7 0.00 0.00 0.00 24 1001.0
20260507083617 26 249 4.8 8.0 0.00 0.00 0.00 24 1002.0
20260507082632 26 219 9.7 3.2 0.00 0.00 0.00 24 1002.0
20260507081133 28 154 3.2 4.8 0.00 0.00 0.00 23 1002.0
20260507080617 27 226 8.0 9.7 0.00 0.00 0.00 24 1002.0
20260507075632 28 196 4.8 8.0 0.00 0.00 0.00 23 1002.0
20260507073617 30 315 1.6 9.7 0.00 0.00 0.00 19 1002.0
20260507072631 29 137 4.8 8.0 0.00 0.00 0.00 19 1002.0
20260507070616 30 315 3.2 9.7 0.00 0.00 0.00 19 1001.0
20260507065631 29 249 8.0 9.7 0.00 0.00 0.00 19 1001.0
20260507064132 29 283 8.0 12.9 0.00 0.00 0.00 19 1001.0
20260507063618 30 270 4.8 9.7 0.00 0.00 0.00 19 1001.0
20260507062631 30 270 1.6 4.8 0.00 0.00 0.00 18 1001.0
20260507060618 30 211 4.8 4.8 0.00 0.00 0.00 18 1001.0
20260507055631 31 270 3.2 4.8 0.00 0.00 0.00 18 1001.0
20260507054131 30 270 4.8 8.0 0.00 0.00 0.00 18 1001.0
20260507053617 31 270 0.0 0.0 0.00 0.00 0.00 19 1002.0
20260507052630 30 270 1.6 4.8 0.00 0.00 0.00 19 1002.0
20260507051130 29 270 8.0 11.3 0.00 0.00 0.00 19 1002.0
20260507050617 30 270 4.8 4.8 0.00 0.00 0.00 19 1002.0
20260507045632 29 135 1.6 3.2 0.00 0.00 0.00 19 1002.8
20260507044131 28 270 3.2 8.0 0.00 0.00 0.00 19 1003.0
20260507043617 29 270 4.8 8.0 0.00 0.00 0.00 19 1003.0
20260507042632 30 270 1.6 9.7 0.00 0.00 0.00 19 1003.0
20260507040616 29 270 3.2 3.2 0.00 0.00 0.00 20 1003.0
20260507035631 28 270 0.0 0.0 0.00 0.00 0.00 20 1003.0
20260507034130 27 270 4.8 8.0 0.00 0.00 0.00 21 1003.0
20260507033616 28 270 4.8 8.0 0.00 0.00 0.00 21 1003.0
20260507032631 28 270 0.0 0.0 0.00 0.00 0.00 21 1003.0
20260507031131 27 270 0.0 0.0 0.00 0.00 0.00 22 1003.0
20260507030618 26 270 4.8 9.7 0.00 0.00 0.00 23 1004.0
20260507025631 27 218 3.2 9.7 0.00 0.00 0.00 22 1004.0
20260507024132 27 135 0.0 0.0 0.00 0.00 0.00 24 1004.0
20260507023617 27 135 3.2 4.8 0.00 0.00 0.00 24 1004.0
20260507022637 26 135 0.0 0.0 0.00 0.00 0.00 27 1004.0
20260507021138 26 180 0.0 0.0 0.00 0.00 0.00 30 1005.0
20260507020617 26 168 0.0 0.0 0.00 0.00 0.00 30 1005.0
20260507014131 25 225 0.0 0.0 0.00 0.00 0.00 32 1005.0
20260507013617 25 180 0.0 0.0 0.00 0.00 0.00 33 1005.0
20260507012631 24 180 0.0 0.0 0.00 0.00 0.00 36 1005.0
20260507011130 23 135 0.0 0.0 0.00 0.00 0.00 37 1005.0
20260507010617 23 135 0.0 3.2 0.00 0.00 0.00 37 1005.0
20260507005631 23 135 0.0 0.0 0.00 0.00 0.00 38 1005.0
20260507004131 22 135 0.0 0.0 0.00 0.00 0.00 39 1005.0
20260507003617 22 135 0.0 0.0 0.00 0.00 0.00 40 1005.0
20260507002630 22 135 0.0 0.0 0.00 0.00 0.00 42 1005.0
20260507001150 21 135 0.0 0.0 0.00 0.00 0.00 43 1005.0
20260507000617 21 135 0.0 0.0 0.00 0.00 0.00 43 1005.0
20260506235641 21 135 0.0 0.0 0.00 0.00 0.00 44 1005.0
20260506234130 21 135 0.0 0.0 0.00 0.00 0.00 45 1005.0
20260506233617 21 135 0.0 3.2 0.00 0.00 0.00 45 1005.0
20260506232630 20 135 0.0 0.0 0.00 0.00 0.00 46 1005.0
20260506230617 20 135 0.0 0.0 0.00 0.00 0.00 48 1006.0
20260506224129 20 135 0.0 0.0 0.00 0.00 0.00 52 1006.0
20260506223616 19 135 0.0 0.0 0.00 0.00 0.00 52 1006.0
20260506222629 19 135 0.0 0.0 0.00 0.00 0.00 54 1006.0
20260506221131 18 135 0.0 0.0 0.00 0.00 0.00 59 1006.0
20260506220617 18 135 0.0 0.0 0.00 0.00 0.00 60 1007.0
20260506215630 18 135 0.0 0.0 0.00 0.00 0.00 63 1007.0
20260506214130 17 135 0.0 0.0 0.00 0.00 0.00 66 1006.0
20260506213617 17 135 0.0 0.0 0.00 0.00 0.00 67 1006.0
20260506212630 17 135 0.0 0.0 0.00 0.00 0.00 68 1006.0
20260506211130 17 135 0.0 0.0 0.00 0.00 0.00 69 1006.0
20260506210616 16 135 0.0 0.0 0.00 0.00 0.00 70 1006.0
20260506205629 16 135 0.0 0.0 0.00 0.00 0.00 70 1006.0
20260506203616 16 135 0.0 0.0 0.00 0.00 0.00 70 1006.0
20260506202629 16 135 0.0 0.0 0.00 0.00 0.00 70 1006.0
20260506201131 16 135 0.0 0.0 0.00 0.00 0.00 70 1006.0
20260506200616 16 135 0.0 0.0 0.00 0.00 0.00 70 1006.0
20260506195630 16 135 0.0 0.0 0.00 0.00 0.00 70 1006.0
20260506194130 16 135 0.0 0.0 0.00 0.00 0.00 71 1006.0
20260506193617 16 135 0.0 0.0 0.00 0.00 0.00 71 1006.0
20260506192629 16 135 0.0 0.0 0.00 0.00 0.00 71 1006.0
20260506191130 16 135 0.0 0.0 0.00 0.00 0.00 71 1007.0
20260506190616 16 135 0.0 0.0 0.00 0.00 0.00 72 1007.0
20260506185630 16 135 0.0 0.0 0.00 0.00 0.00 72 1007.0
20260506184129 16 135 0.0 0.0 0.00 0.00 0.00 73 1007.0
20260506183616 16 135 0.0 0.0 0.00 0.00 0.00 73 1007.0
20260506182629 16 135 0.0 0.0 0.00 0.00 0.00 74 1007.0
20260506181129 16 135 0.0 0.0 0.00 0.00 0.00 75 1007.0
20260506180616 16 135 0.0 0.0 0.00 0.00 0.00 75 1007.0
20260506175630 15 135 0.0 0.0 0.00 0.00 0.00 75 1007.0
20260506174131 16 135 0.0 0.0 0.00 0.00 0.00 74 1006.0
20260506173616 16 135 0.0 0.0 0.00 0.00 0.00 74 1007.0
20260506172630 16 135 0.0 0.0 0.00 0.00 0.00 74 1007.0
20260506171130 16 135 0.0 0.0 0.00 0.00 0.00 73 1007.0
20260506170615 16 135 0.0 0.0 0.00 0.00 0.00 72 1007.0
20260506165630 16 135 0.0 0.0 0.00 0.00 0.00 72 1007.0
20260506164133 16 135 0.0 0.0 0.00 0.00 0.00 72 1008.0
20260506163619 16 135 0.0 0.0 0.00 0.00 0.00 72 1007.0
20260506162632 16 135 0.0 0.0 0.00 0.00 0.00 71 1007.0
20260506161132 16 135 0.0 0.0 0.00 0.00 0.00 71 1007.0
20260506160619 16 135 0.0 0.0 0.00 0.00 0.00 71 1008.0
20260506155632 16 135 0.0 0.0 0.00 0.00 0.00 70 1008.0
20260506154132 16 135 0.0 0.0 0.00 0.00 0.00 69 1008.0
20260506153618 16 135 0.0 0.0 0.00 0.00 0.00 69 1008.0
20260506152631 16 135 0.0 0.0 0.00 0.00 0.00 68 1008.0
20260506151133 16 135 0.0 0.0 0.00 0.00 0.00 67 1008.0
20260506150618 16 135 0.0 0.0 0.00 0.00 0.00 66 1008.0
20260506145633 16 135 0.0 0.0 0.00 0.00 0.00 66 1008.0
20260506144133 17 135 0.0 0.0 0.00 0.00 0.00 64 1008.0
20260506143618 17 135 0.0 0.0 0.00 0.00 0.00 64 1009.0
20260506142632 17 135 0.0 0.0 0.00 0.00 0.00 63 1009.0
20260506141132 17 135 0.0 0.0 0.00 0.00 0.00 62 1009.0
20260506140617 17 135 0.0 0.0 0.00 0.00 0.00 62 1008.0
20260506135632 17 135 0.0 0.0 0.00 0.00 0.00 61 1008.0
20260506134132 17 135 0.0 0.0 0.00 0.00 0.00 60 1008.0
20260506133617 17 135 0.0 0.0 0.00 0.00 0.00 60 1008.0
20260506132631 17 135 0.0 0.0 0.00 0.00 0.00 60 1008.0
20260506131132 17 135 0.0 0.0 0.00 0.00 0.00 61 1008.0
20260506130619 17 135 0.0 0.0 0.00 0.00 0.00 61 1008.0
20260506125632 17 135 0.0 0.0 0.00 0.00 0.00 60 1008.0
20260506124132 17 135 0.0 0.0 0.00 0.00 0.00 58 1008.0
20260506123619 17 135 0.0 0.0 0.00 0.00 0.00 57 1008.0
20260506122632 17 135 0.0 0.0 0.00 0.00 0.00 56 1008.0
20260506121131 17 135 0.0 0.0 0.00 0.00 0.00 57 1008.2
20260506120618 17 135 0.0 0.0 0.00 0.00 0.00 57 1008.0
20260506115631 17 180 0.0 0.0 0.00 0.00 0.00 56 1008.0
20260506114131 18 180 0.0 0.0 0.00 0.00 0.00 54 1008.0
20260506113618 18 180 0.0 0.0 0.00 0.00 0.00 54 1008.0
20260506112632 18 270 0.0 0.0 0.00 0.00 0.00 55 1008.0
20260506111130 18 270 0.0 0.0 0.00 0.00 0.00 54 1008.0
20260506110618 18 270 0.0 0.0 0.00 0.00 0.00 54 1008.0
20260506105632 18 270 0.0 0.0 0.00 0.00 0.00 54 1008.0